Windsor, CA

3:42 AM PST on February 08, 2016 (GMT -0800)
Sonoma County

Weather History for KSTS - October, 2010

Change the Weather History Date:

Monday, October 4, 2010

  Actual Average Record
Temperature  
Mean Temperature 62 °F 63 °F  
Max Temperature 77 °F 80 °F 97 °F (2014)
Min Temperature 46 °F 47 °F 43 °F (1998)
Degree Days  
Heating Degree Days 3    
Month to date heating degree days 10  
Since 1 July heating degree days 95  
Cooling Degree Days 0    
Month to date cooling degree days 1  
Year to date cooling degree days 292  
Growing Degree Days 10 (Base 50)    
Moisture  
Dew Point 48 °F    
Average Humidity 69    
Maximum Humidity 100    
Minimum Humidity 38    
Precipitation  
Precipitation 0.00 in 0.02 in 0.39 in (2011)
Month to date precipitation 0.00 0.09  
Year to date precipitation 29.43 22.62  
Since 1 July precipitation 0.14  
Sea Level Pressure  
Sea Level Pressure 29.88 in    
Wind  
Wind Speed 5 mph (East)    
Max Wind Speed 13 mph    
Max Gust Speed 17 mph    
Visibility 8 miles    
Events Fog    
T = Trace of Precipitation, MM = Missing Value Source: NWS Daily Summary

Daily Weather History Graph

Daily Weather History Graph

Search for Another Location

Airport or City:

Trip Planner

Search our weather history database for the weather conditions in past years. The results will help you decide how hot, cold, wet, or windy it might be!

Date:

Astronomy

Oct. 04, 2010 Rise Set
Actual Time 7:09 AM PDT 6:49 PM PDT
Civil Twilight 6:43 AM PDT 7:15 PM PDT
Nautical Twilight 6:12 AM PDT 7:46 PM PDT
Astronomical Twilight 5:41 AM PDT 8:17 PM PDT
Moon 3:27 AM PDT (10/4) 4:48 PM PDT (10/4)
Length of Visible Light 12h 32m
Length of Day
11h 39m
Waning Crescent, 13% of the Moon is Illuminated
Oct 4
Waning Crescent
Oct 7
New
Oct 14
First Quarter
Oct 22
Full
Oct 30
Last Quarter

Hourly Weather History & Observations

Time (PDT) Temp. Dew Point Humidity Pressure Visibility Wind Dir Wind Speed Gust Speed Precip Events Conditions
12:53 AM 54.0 °F 51.1 °F 90% 29.89 in 10.0 mi Calm Calm - N/A   Mostly Cloudy
1:53 AM 53.1 °F 50.0 °F 89% 29.89 in 10.0 mi Calm Calm - N/A   Partly Cloudy
2:53 AM 51.1 °F 50.0 °F 96% 29.88 in 10.0 mi SSW 5.8 mph - N/A   Clear
3:51 AM 50.0 °F 48.2 °F 94% 29.88 in 8.0 mi Calm Calm - N/A   Scattered Clouds
3:53 AM 50.0 °F 48.0 °F 93% 29.86 in 8.0 mi Calm Calm - N/A   Scattered Clouds
4:01 AM 50.0 °F 48.2 °F 94% 29.87 in 8.0 mi Calm Calm - N/A   Mostly Cloudy
4:27 AM 50.0 °F 48.2 °F 94% 29.87 in 1.5 mi Calm Calm - N/A   Overcast
4:37 AM 50.0 °F 48.2 °F 94% 29.87 in 0.5 mi ESE 3.5 mph - N/A Fog Fog
4:53 AM 48.9 °F 48.0 °F 97% 29.86 in 0.5 mi SSE 3.5 mph - N/A Fog Fog
5:42 AM 48.2 °F 46.4 °F 93% 29.89 in 2.0 mi South 3.5 mph - N/A   Mostly Cloudy
5:50 AM 48.2 °F 46.4 °F 93% 29.89 in 8.0 mi South 4.6 mph - N/A   Scattered Clouds
5:53 AM 48.0 °F 46.9 °F 96% 29.87 in 9.0 mi SSE 4.6 mph - N/A   Partly Cloudy
6:53 AM 46.9 °F 46.0 °F 97% 29.88 in 9.0 mi South 3.5 mph - N/A Fog Patches of Fog
7:53 AM 48.9 °F 46.9 °F 93% 29.89 in 10.0 mi SSE 3.5 mph - N/A   Scattered Clouds
8:53 AM 54.0 °F 48.9 °F 83% 29.90 in 10.0 mi South 3.5 mph - N/A   Scattered Clouds
9:53 AM 60.1 °F 48.0 °F 64% 29.91 in 10.0 mi Calm Calm - N/A   Clear
10:53 AM 66.9 °F 48.0 °F 51% 29.90 in 10.0 mi NNW 10.4 mph - N/A   Scattered Clouds
11:53 AM 68.0 °F 48.0 °F 49% 29.90 in 10.0 mi Variable 3.5 mph - N/A   Scattered Clouds
12:53 PM 71.1 °F 48.0 °F 44% 29.89 in 10.0 mi Variable 3.5 mph - N/A   Scattered Clouds
1:53 PM 72.0 °F 48.0 °F 43% 29.87 in 10.0 mi Variable 5.8 mph - N/A   Mostly Cloudy
2:53 PM 75.0 °F 48.9 °F 40% 29.86 in 10.0 mi NNE 8.1 mph - N/A   Overcast
3:53 PM 75.0 °F 48.9 °F 40% 29.85 in 10.0 mi Variable 4.6 mph - N/A   Scattered Clouds
4:53 PM 75.0 °F 48.9 °F 40% 29.83 in 10.0 mi West 5.8 mph - N/A   Scattered Clouds
5:53 PM 75.0 °F 50.0 °F 41% 29.83 in 10.0 mi NW 11.5 mph - N/A   Mostly Cloudy
6:53 PM 69.1 °F 48.9 °F 49% 29.84 in 10.0 mi NNW 8.1 mph - N/A   Scattered Clouds
7:53 PM 66.9 °F 46.9 °F 49% 29.87 in 10.0 mi Calm Calm - N/A   Partly Cloudy
8:53 PM 64.0 °F 46.9 °F 54% 29.90 in 10.0 mi North 5.8 mph - N/A   Scattered Clouds
9:53 PM 62.1 °F 46.9 °F 58% 29.91 in 10.0 mi NNE 5.8 mph - N/A   Scattered Clouds
10:53 PM 60.1 °F 46.0 °F 60% 29.92 in 10.0 mi North 5.8 mph - N/A   Clear
11:53 PM 60.1 °F 46.9 °F 62% 29.92 in 10.0 mi North 9.2 mph - N/A   Scattered Clouds